{"data":{"norad_id":64173,"intl_designator":"2025-113D","name":"STARLINK-34172","alt_names":[],"object_type":"PAYLOAD","status":"ACTIVE","operator":null,"country":"US","launch_date":"2025-05-28","launch_site_code":"AFETR","launch_vehicle":null,"mission":null,"orbit_class":"UNKNOWN","rcs_meters":null,"size_class":null,"mass_kg":null,"dimensions":null,"purposes":["comms"],"wikipedia_slug":null,"has_3d_model":false,"image_url":null,"decayed_at":null,"tle_current":{"epoch":"2026-05-25T02:31:56.945280Z","epoch_age_seconds":69169,"freshness":"FRESH","line1":"1 64173U 25113D   26145.10552020  .00025840  00000+0  84115-3 0  9996","line2":"2 64173  53.1578  95.5584 0000947 109.0653 251.0451 15.31715324 56733","mean_motion":15.31715324,"eccentricity":9.47e-5,"inclination_deg":53.1578,"raan_deg":95.5584,"arg_perigee_deg":109.0653,"mean_anomaly_deg":251.0451,"bstar":0.00084115,"rev_number":5673,"period_min":94.012247408971,"perigee_km":470.0457312343,"apogee_km":471.34289988546,"semimajor_km":6848.8313155599,"source":"CELESTRAK","updated_at":"2026-05-25T13:38:20.309514Z"}}}